Voltar ao catálogo

STARLINK-37641

AtivoComunicaçõesVLEO
NORAD 69445·PAYLOAD·🇺🇸 United States

Lançado Jun 8, 2026 de Cape Canaveral Space Force Station

Loading…

Próximas Passagens (próximas 24 horas)

TLE

AtualizadoSource: CelesTrak SupGP

Época: Sep 14, 2026, 23:22 UTC

1 69445C 26127C   26257.97409722 -.00066303  00000+0 -19585-2 0  2574
2 69445  53.1579 191.3495 0001308  90.4305  15.0688 15.34430722    15

Acompanhe STARLINK-37641 em tempo real com AllMySat

Download on the App Store